Location: Beekmeers
(50.8953°N, 3.6968°E)
Time: 14:12:59
(UTC+00:00)

Cosmos 1763 Rocket - Pass Details

Date: 23 May 2024
Orbit: 730 x 778 km, 74.0° (Epoch: 18 June)

Event Time Altitude Azimuth Distance (km) Brightness Sun altitude
Rises 00:48:40 0° 331° (NNW) 3,272 7.5 -17.0°
Reaches altitude 10° 00:51:10 10° 325° (NW) 2,340 6.5 -16.9°
Maximum altitude 00:56:09 42° 255° (WSW) 1,096 4.0 -16.6°
Enters shadow 00:58:23 28° 205° (SSW) 1,435 4.3 -16.5°
